Terminal Aerodrome Forecast
Issued by NWS Quad Cities IA IL

Home | Current Version | Previous Version | Text Only | Print | Product List | Glossary On
Versions: 1 2 3 4 5 6 7 8 9 10 11 12 13 14 15 16 17 18 19 20 21 22 23 24 25 26 27 28 29
000
FTUS43 KDVN 191200 AAB
TAFDBQ
TAF AMD
KDBQ 191207Z 1912/2012 19006KT 3/4SM BR OVC002
      TEMPO 1912/1915 4SM BR BKN004
     FM191500 18012KT P6SM SCT020 SCT250
     FM191800 19014G23KT P6SM SCT040 SCT250
     FM200200 19012KT P6SM BKN025=

USA.gov is the U.S. government's official web portal to all federal, state and local government web resources and services.